Location: Prague
(50.0833°N, 14.4667°E)
Time: 20:05:03
(UTC+02:00)

ISS - Pass Details

Date: 26 May 2024
Orbit: 410 x 421 km, 51.6° (Epoch: 12 June)

Event Time Altitude Azimuth Distance (km) Brightness Sun altitude
Rises 21:30:38 0° 287° (WNW) 2,376 1.4 -5.0°
Reaches altitude 10° 21:32:54 10° 276° (W) 1,506 0.0 -5.3°
Maximum altitude 21:35:54 30° 213° (SSW) 785 -2.5 -5.7°
Drops below altitude 10° 21:38:52 10° 151° (SSE) 1,492 -1.6 -6.0°
Enters shadow 21:39:24 - 147° (SSE) 1,688 -1.3 -6.1°
Sets 21:41:04 0° 140° (SE) 2,341 - -6.3°
